Location: �terpigny
(49.8910°N, 2.9249°E)
Time: 12:58:29
(UTC+00:00)

NOSS 2 (A) - Pass Details

Date: 24 October 2021
Orbit: 273 x 1575 km, 63.3° (Epoch: 06 February)

Event Time Altitude Azimuth Distance (km) Brightness Sun altitude
Rises 17:20:17 0° 318° (NW) 2,308 9.0 -7.2°
Reaches altitude 10° 17:22:30 10° 320° (NW) 1,349 7.8 -7.6°
Maximum altitude 17:25:24 71° 45° (NE) 345 4.1 -8.0°
Drops below altitude 10° 17:27:53 10° 131° (SE) 1,162 6.6 -8.4°
Enters shadow 17:28:49 - 133° (SE) 1,567 7.3 -8.6°
